Weather in Jihlava

Czech Republic     49°23′44″N   15°35′06″E
temp.,
°C
wind,
m/s
gust,
m/s
humid.,
%
clouds,
%
prec.,
mm/h
press.,
hPa
HPBL,
m
13 may, thu
thu1323:00+11wnw4798100 0.2 1006328
02:00+9wnw4998100 1.3 1005342
05:00+8wnw4998100 1.3 1004496
08:00+8wnw51098100 6.6 1003508
11:00+8wnw71197100 2.4 1003698
14:00+7wnw71198100 12.7 1003611
17:00+7wnw71297100 10.5 1004722
20:00+7wnw71398100 21.6 1005655
14 may, fri
fri1423:00+7wnw81497100 5.1 1005684
02:00+7wnw71295100 12.8 1005979
05:00+7wnw71392100 6.9 10061058
08:00+8wnw51092100 7.8 1007915
11:00+10wnw5787100 0.5 1008887
14:00+12wnw5778100 1.4 10081075
17:00+12w4681100 0.5 1008947
20:00+10wsw2285100 0.5 100818
15 may, sat
sat1523:00+8wsw1189100 0.0 101010
02:00+7sw229086 0.0 101012
05:00+6sw2291100 0.0 101018
08:00+10w238145 0.0 1010257
11:00+13w3369100 0.4 1009827
14:00+14ssw1167100 1.6 1008820
17:00+10wsw2492100 1.0 1008120
20:00+10nne0090100 1.1 100710
16 may, sun
sun1623:00+8ese119199 0.0 100610
02:00+8w3794100 0.0 1007179
05:00+7wnw3898100 0.3 1008372
08:00+8wnw4891100 0.9 1008529
11:00+12w566987 0.1 10071374
14:00+13w456373 0.3 10061495
17:00+14sw345882 0.1 10051421
20:00+10sw228651 0.8 100516
17 may, mon
mon1723:00+7wsw229227 0.0 100712
02:00+8ssw3594100 0.1 1008148
05:00+7sw4896100 0.3 1007245
08:00+8wsw4892100 0.3 1008360
11:00+11w4577100 0.4 1008983
14:00+12w5670100 1.0 10071105
17:00+12wnw6769100 0.2 10071254
20:00+9wnw4883100 0.3 1008320